Regional Weather Roundup
Issued by NWS Green Bay, WI

Home | Current Version | Previous Version | Graphics & Text | Print | Product List | Glossary Off
Versions: 1 2 3 4 5 6 7 8 9 10 11 12 13 14 15 16 17 18 19 20 21 22 23 24 25 26 27 28 29 30 31 32 33 34 35 36 37 38 39 40 41 42 43 44 45 46 47 48 49 50

190
ASUS43 KGRB 270911
RWRGRB

NORTH-CENTRAL AND NORTHEAST WISCONSIN REGIONAL WEATHER ROUNDUP
NATIONAL WEATHER SERVICE GREEN BAY WI
400 AM CDT THU APR 27 2017

WIZ005-009-010>012-018-019-271000-
NORTH CENTRAL WISCONSIN

CITY           SKY/WX    TMP DP  RH WIND       PRES   REMARKS
IRONWOOD       LGT SNOW  26  25  96 N8        29.52R FOG
MANITOWISH WTR CLOUDY    28  28 100 N9        29.45F
ARBOR VITAE    CLOUDY    32  29  90 N7        29.43F
EAGLE RIVER    FLURRIES  29  28  94 N7        29.42F
LAND O LAKES   LGT SNOW  29  27  94 N8        29.45F
RHINELANDER    MIX PCPN  32  29  88 VRB7      29.42F
PHILLIPS       CLOUDY    28  26  92 N8        29.46F
ANTIGO         RAIN      34  34 100 N10       29.39F
TOMAHAWK       CLOUDY    31  28  90 NW6       29.43F
MERRILL        DRIZZLE   33  32  95 N8        29.41F
$$

WIZ013-073-271000-
NORTHEAST WISCONSIN

CITY           SKY/WX    TMP DP  RH WIND       PRES   REMARKS
IRON MOUNTAIN  LGT RAIN  35  31  85 N9        29.40F
MARINETTE      RAIN      42  40  92 N9        29.38F
OCONTO         CLOUDY    42  41  96 N7        29.37F
$$

WIZ017-030-035>037-045-271000-
CENTRAL WISCONSIN

CITY           SKY/WX    TMP DP  RH WIND       PRES   REMARKS
MEDFORD        CLOUDY    32  29  91 N10       29.42F
WAUSAU         LGT RAIN  35  34  96 N9        29.39F
MOSINEE        LGT RAIN  36  36 100 N9G16     29.41F
MARSHFIELD     LGT RAIN  36  33  89 N13       29.40S FOG
WISC RAPIDS    LGT RAIN  39  38  96 N9        29.41F
STEVENS POINT  DRIZZLE   36  36 100 NW7       29.40S
WAUPACA        DRIZZLE   43  41  91 NW7       29.38F
SHAWANO        LGT RAIN  45  42  91 N6        29.39F
CLINTONVILLE   RAIN      43  43 100 N6        29.38F
WAUTOMA        RAIN      41  40  96 NW7       29.38F
$$

WIZ038-039-048-051-271000-
FOX VALLEY

CITY           SKY/WX    TMP DP  RH WIND       PRES   REMARKS
NWS GREEN BAY  RAIN      49  49 100 NW7       29.35F FOG
APPLETON       RAIN      45  45 100 N8        29.34F
OSHKOSH        RAIN      44  42  93 NW7       29.35F FOG
FOND DU LAC    LGT RAIN  45  42  89 NW10      29.34F
$$

WIZ022-050-052-271000-
EAST CENTRAL WISCONSIN

CITY           SKY/WX    TMP DP  RH WIND       PRES   REMARKS
EPHRAIM        RAIN      39  39 100 N14       29.35F VSB 1
WASHINGTON ISL RAIN      39  39  99 NE13      29.36F
STURGEON BAY   RAIN      43  43 100 MISG      29.36F
MANITOWOC      CLOUDY    51  50  96 NW6       29.34F
SHEBOYGAN      LGT RAIN  50  49  96 N6        29.33F FOG
$$

LMZ563-521-522-541>543-271000-
LAKESHORE

STATION/POSITION TIME  TEMP    WIND        PRES    VSBY  WAVE
                       AIR SEA DIR/SP/G                  HT/PER
                 (UTC) (F)     (DEG/KT/KT) (MB)    (MI)  (FT/S)
SHEBOYGAN LKSHOR 0900   50     350/  8/  8  992.8F
KEWAUNEE LKSHORE 0848   49      30/  7/ 10  993.6F
NORTHPORT PIER   0840   40     340/  9/ 10  994.9F
N MID LAKE BUOY  0850   40 37   30/  6/  8  995.5F         1/ 5
CHAMBERS ISLAND  0840   40      10/ 11/ 14  994.9F
MENOMINEE LKSHOR 0848   43     330/ 10/ 12  994.3F
$$




USA.gov is the U.S. government's official web portal to all federal, state and local government web resources and services.